Theta_e
308 306 307 308 306 305 305 307 307 308 308 309 310 311 310 315 317 315 315 321 326 328 330 331 329 328 327 324 324 326 325 326 328 325 324 324 324 323 324 326 325 324 323
300 301 302 303 304 305 305 305 306 306 306 308 310 312 315 315 311 307 306 308 314 319 325 327 326 325 324 322 322 321 324 324 324 321 320 315 317 320 320 322 322 322 322
300 300 299 301 302 302 303 304 304 303 304 306 309 311 313 312 310 306 303 302 305 307 310 313 315 314 317 316 316 318 320 319 321 322 319 312 311 316 319 320 320 319 319
298 298 298 299 301 302 301 302 302 301 302 304 309 311 312 311 309 303 300 299 301 302 304 305 306 307 308 308 310 311 315 316 316 319 321 322 319 312 311 318 317 315 312
295 296 297 299 301 300 300 299 299 299 299 302 307 310 309 306 300 298 297 297 297 298 299 300 301 302 303 304 305 305 306 309 311 312 313 317 319 318 313 310 312 312 304
293 293 294 296 298 297 297 296 297 296 297 299 302 307 306 300 297 296 296 295 294 295 295 296 298 299 299 300 300 300 300 302 303 305 305 306 308 309 307 310 311 308 301
294 294 294 295 295 295 294 294 295 294 295 297 298 301 302 300 299 297 296 293 292 292 292 294 295 296 295 296 297 296 296 297 298 299 299 299 298 300 302 303 304 303 303
293 294 294 294 294 292 293 293 293 293 292 293 293 295 297 297 296 295 294 293 292 291 291 292 293 293 293 293 294 294 294 294 294 294 294 294 293 294 295 298 300 299 299
293 294 294 294 292 291 291 292 292 292 291 291 290 291 292 292 291 291 291 290 289 290 290 291 291 291 291 291 292 292 291 292 292 291 291 290 289 290 291 291 292 294 291
293 294 293 293 292 291 291 291 291 291 290 289 289 289 289 289 288 288 288 288 288 289 290 289 289 289 289 289 290 290 290 289 289 288 287 287 287 287 287 286 286 287 289
292 293 293 292 292 290 289 289 289 289 289 288 288 287 287 287 287 287 287 286 287 287 288 288 287 287 287 287 288 288 287 286 285 285 285 284 284 283 284 284 284 283 283
293 293 292 292 290 290 289 288 288 288 288 288 286 286 286 285 285 285 285 285 285 286 287 286 286 285 285 286 286 286 285 284 284 283 284 283 283 282 282 282 281 282 282
292 293 291 291 291 290 289 288 287 287 287 287 286 285 284 284 284 283 283 284 284 285 286 285 284 284 284 284 284 284 283 283 282 282 282 281 281 281 281 280 280 280 281
291 291 291 291 290 290 289 288 288 287 286 285 285 284 283 283 283 283 282 283 283 284 284 284 283 283 283 283 283 282 281 282 281 281 281 280 280 280 280 279 279 279 279
291 290 291 291 291 290 289 289 288 287 286 285 284 284 284 283 282 282 282 282 282 283 284 282 282 282 282 282 282 281 281 281 280 280 279 280 280 280 280 279 279 278 278
292 292 291 291 290 290 290 289 289 286 286 285 285 284 283 282 281 281 281 281 281 282 282 282 281 281 281 284 284 281 280 280 279 278 278 277 278 279 279 279 279 279 277
292 293 294 293 291 291 290 288 288 286 284 285 284 283 282 281 280 280 280 280 280 280 281 281 281 281 282 284 284 282 279 279 278 278 278 277 277 278 277 277 277 276 277
293 294 295 293 292 290 289 288 286 284 283 283 282 281 281 280 280 279 279 279 279 279 280 280 281 281 282 284 283 281 278 277 277 277 277 276 276 277 277 275 275 274 275
296 297 295 292 290 290 289 286 284 282 281 281 281 281 280 279 279 278 278 278 278 278 279 280 280 280 281 283 282 279 277 276 275 276 276 276 275 277 277 274 273 273 273
293 292 289 288 287 287 285 284 282 280 280 280 280 280 280 279 278 279 278 278 279 278 279 280 279 279 280 283 281 279 277 275 275 276 275 276 276 276 275 273 272 271 272
289 288 285 285 284 283 282 282 281 280 280 278 278 278 278 278 279 278 277 277 277 278 278 278 278 278 279 281 281 280 277 277 276 275 275 275 276 275 274 273 271 271 272
285 284 282 281 280 279 279 280 279 279 277 276 276 276 276 277 277 277 276 277 277 276 276 276 275 276 276 279 281 280 278 278 276 275 275 274 275 274 273 271 271 271 268
282 281 279 279 277 276 277 278 277 275 274 273 273 273 274 276 276 276 275 275 276 275 274 274 273 272 274 276 280 279 278 277 274 275 275 275 273 272 270 269 269 266 265
280 276 274 275 275 271 273 273 272 272 271 271 271 272 273 273 274 275 275 275 274 274 274 273 272 272 272 272 274 274 276 276 274 274 273 271 270 268 268 266 266 265 264
276 273 274 275 275 272 271 269 271 271 271 271 270 272 272 272 272 273 274 274 274 275 273 274 273 271 270 271 273 273 272 273 273 269 268 266 265 265 264 264 263 262 262
276 274 274 272 272 270 270 268 270 271 270 269 270 270 270 270 271 271 271 276 276 278 278 277 274 273 275 276 276 275 275 275 275 266 264 264 264 263 263 262 261 261 259
Wind_Speed
10 7 7 6 6 5 7 8 7 5 3 1 1 1 1 0 1 2 4 3 3 5 7 5 5 4 4 1 0 2 4 3 2 3 2 3 4 5 4 3 3 3 3
10 8 8 7 8 8 7 7 7 6 4 2 2 2 2 2 3 3 4 5 4 4 3 5 4 2 2 3 4 4 3 2 4 2 0 3 3 2 3 3 4 5 5
14 10 8 9 6 8 8 8 6 6 4 4 3 2 3 2 2 2 2 4 5 5 5 5 5 4 3 2 4 2 1 1 1 2 1 1 2 2 2 4 5 6 6
10 8 7 7 10 11 6 6 6 5 4 6 5 5 4 4 1 2 3 3 5 6 6 6 6 5 3 3 2 1 0 2 2 2 3 3 2 2 3 1 6 7 8
7 9 10 12 10 7 9 6 6 5 4 4 5 4 3 2 3 4 6 4 4 5 6 5 5 4 3 3 3 2 2 1 1 1 1 2 1 2 4 4 3 5 7
6 7 8 7 5 6 8 6 6 4 3 4 4 6 7 8 6 5 4 3 2 3 4 5 4 4 4 3 3 3 3 2 2 1 2 2 2 1 2 5 4 3 5
7 7 7 5 4 6 6 5 6 5 4 4 3 4 6 8 8 7 5 5 3 2 3 3 3 3 4 4 4 4 5 5 3 3 2 3 2 2 2 2 2 2 3
7 7 6 5 5 6 6 7 7 6 5 5 4 4 4 3 3 4 3 3 2 3 3 4 4 5 5 5 5 4 4 4 4 5 5 3 3 3 2 2 2 2 2
6 6 3 4 5 7 8 7 5 4 4 4 4 5 5 6 6 5 4 4 4 3 4 4 5 5 5 5 4 3 4 5 5 5 5 4 3 4 4 4 2 2 2
6 4 3 5 4 5 5 6 6 7 6 6 5 4 4 4 5 4 5 5 4 4 5 5 5 5 4 4 4 4 4 5 4 4 6 5 4 5 5 5 4 4 1
7 5 4 4 5 5 7 7 7 7 6 6 5 6 5 5 5 4 4 4 3 4 5 5 5 4 4 4 5 5 5 6 7 6 6 7 6 5 5 5 5 5 4
4 3 5 5 6 7 7 8 6 6 7 7 6 6 6 6 5 5 5 5 5 4 5 5 5 5 4 4 5 5 5 7 7 7 7 7 5 7 6 5 6 5 5
5 4 4 6 7 8 8 8 8 9 8 7 7 5 6 6 6 6 6 5 6 6 6 6 6 5 5 5 5 6 6 7 7 7 7 7 6 6 4 5 4 4 3
7 6 6 7 7 7 8 8 9 9 7 8 9 9 9 8 8 7 7 7 6 7 7 6 6 6 6 6 7 7 8 8 7 8 8 7 7 6 5 4 4 4 3
10 9 8 8 8 8 8 9 9 9 9 10 10 11 9 8 7 8 8 7 7 6 7 7 7 7 7 6 9 9 9 9 9 8 8 7 7 8 7 3 4 4 3
15 13 10 9 10 11 9 8 11 11 11 12 12 9 10 10 9 8 8 7 7 7 7 7 8 8 5 13 13 11 9 9 9 9 8 7 6 6 6 6 5 4 3
16 15 16 12 10 10 7 10 10 7 11 12 10 11 10 10 10 9 9 8 8 7 8 8 9 9 8 16 16 15 9 9 9 9 8 7 5 4 4 4 3 4 4
15 16 14 10 8 5 8 7 7 9 11 11 10 10 12 12 10 10 10 8 8 10 9 9 9 9 7 16 15 14 9 8 8 8 7 7 6 4 4 3 2 2 3
18 16 11 9 5 7 7 7 7 7 7 9 11 11 11 11 11 12 12 9 9 8 9 9 9 9 8 13 12 10 7 7 7 6 7 7 6 5 4 2 2 0 3
12 11 6 4 6 5 5 6 7 7 10 10 10 11 12 13 14 13 13 8 8 9 7 9 9 10 9 16 15 11 7 7 6 6 6 5 4 4 4 3 1 2 1
10 6 4 7 7 5 5 7 7 11 6 7 7 9 10 11 11 10 8 9 9 8 8 8 7 8 8 11 13 12 6 6 6 6 6 5 7 4 3 5 2 1 4
10 7 6 7 5 5 6 7 9 6 7 8 8 8 8 7 8 11 9 9 9 9 9 9 7 6 6 8 15 12 8 7 5 5 5 5 7 5 4 3 2 2 4
8 5 6 7 5 5 5 7 3 4 6 6 6 7 7 7 9 10 10 9 10 9 9 8 8 7 5 4 13 14 10 8 4 4 6 9 7 5 4 3 1 4 2
7 2 1 7 8 2 3 3 0 3 4 4 4 5 7 7 7 6 7 8 8 8 8 9 8 7 6 5 4 2 5 9 6 5 5 6 5 5 4 2 2 1 1
4 2 5 7 9 5 5 3 4 5 4 5 5 5 4 6 6 4 5 6 5 9 9 8 9 10 8 7 11 9 6 5 7 7 4 3 3 3 2 2 3 2 3
6 5 5 7 5 5 5 4 5 6 7 5 5 5 5 5 5 6 4 7 9 12 11 13 10 6 10 15 16 15 14 14 14 3 3 4 4 4 3 3 3 3 3
Wind_Direction
253 233 243 233 222 210 199 191 171 181 163 165 178 226 242 148 90 36 5 328 252 225 212 207 180 167 162 125 331 250 252 256 294 282 303 316 314 296 278 277 304 12 36
257 241 230 220 211 214 204 179 192 178 179 170 175 146 144 105 101 89 51 30 40 51 108 144 125 100 113 114 93 51 330 32 5 24 233 319 323 346 18 40 59 76 77
247 252 234 225 220 222 201 195 185 182 178 178 140 111 96 102 135 110 68 30 50 59 73 78 84 77 84 94 88 87 151 267 276 225 186 272 273 313 347 51 78 82 85
247 249 240 228 216 220 182 191 185 178 183 177 188 178 175 172 174 114 109 79 59 68 71 80 84 88 88 92 84 49 269 217 244 295 257 254 194 257 310 90 73 78 77
241 253 243 233 229 175 187 174 175 184 184 190 197 187 165 133 132 128 123 105 75 65 67 74 84 88 88 87 77 61 40 10 226 233 336 279 264 230 244 266 139 86 73
262 260 266 265 217 172 162 164 166 167 170 180 189 192 172 155 150 157 149 133 96 70 64 73 81 82 86 85 83 86 67 54 62 36 30 331 299 252 222 247 258 134 97
285 272 279 256 231 189 156 151 160 168 168 159 155 176 168 166 167 165 161 160 151 132 90 81 79 80 78 75 75 68 56 39 49 36 57 36 25 336 294 261 273 250 146
267 273 287 246 205 177 169 165 173 167 159 144 140 128 138 144 146 158 157 160 156 139 127 103 86 77 70 65 63 66 65 61 63 67 68 73 42 24 357 315 280 258 225
307 295 268 208 193 178 180 180 164 148 160 139 142 145 145 148 157 154 151 148 139 139 120 101 93 76 72 71 77 79 81 80 76 82 85 85 62 53 46 46 16 273 262
318 299 238 204 197 189 169 161 169 175 170 162 165 156 139 134 139 142 152 156 140 124 124 110 96 87 83 90 99 100 103 107 98 95 95 82 69 61 52 49 45 34 347
302 288 250 219 201 179 177 182 181 176 172 177 172 161 160 152 150 157 153 146 137 141 135 130 121 115 111 116 117 116 121 111 104 93 93 81 69 63 52 49 45 46 21
276 292 264 212 192 197 192 195 186 185 189 182 175 178 159 155 155 160 162 160 153 150 147 142 133 131 132 136 140 131 128 127 117 107 99 89 83 71 57 55 53 46 41
1 301 260 241 220 202 198 198 198 202 193 178 174 172 174 168 172 169 167 167 163 163 156 152 150 146 142 136 130 131 126 119 116 114 110 105 101 86 74 63 55 42 42
256 265 265 248 241 222 202 206 213 199 182 181 186 186 186 183 180 173 176 177 177 171 168 162 151 149 147 142 134 127 120 116 112 110 106 102 96 95 90 74 54 37 28
259 233 244 249 235 234 217 208 214 195 186 191 198 200 184 181 172 175 179 176 175 174 166 157 153 150 150 152 147 144 141 135 127 116 112 103 92 87 72 68 54 42 28
252 254 229 227 225 222 215 204 213 203 182 199 207 187 180 178 181 176 175 174 176 170 164 163 157 158 156 161 157 150 148 147 147 145 137 130 115 96 77 61 62 62 46
246 254 258 235 225 219 201 213 215 170 190 200 199 188 179 180 180 173 171 176 174 166 175 170 165 166 164 167 164 160 155 155 155 156 158 148 132 128 111 85 80 73 51
245 246 254 254 246 213 197 209 187 188 192 197 192 180 182 183 172 169 177 176 174 179 178 176 172 165 175 172 170 162 151 150 150 152 154 148 146 140 111 95 113 116 106
247 253 245 236 226 216 210 194 192 190 183 194 193 187 179 173 172 180 182 181 179 184 182 176 163 164 168 170 168 154 149 146 149 147 147 148 153 120 79 79 104 137 135
241 250 246 237 232 245 178 182 194 185 205 198 187 177 179 180 185 183 182 179 181 175 171 174 169 163 164 171 173 165 162 159 158 153 146 153 148 118 96 106 139 206 130
274 281 227 231 235 215 186 210 196 214 198 165 164 172 180 181 180 173 169 161 165 159 164 162 157 159 164 172 179 179 177 174 168 168 171 175 175 133 105 102 149 259 60
290 275 270 258 234 212 189 213 217 186 169 161 165 169 166 165 159 158 156 160 158 156 157 151 149 153 155 180 178 183 177 172 172 173 167 163 164 142 122 135 211 10 78
295 298 278 281 257 247 230 231 253 157 144 141 152 153 151 153 156 157 158 159 165 166 168 164 163 161 158 168 188 181 177 168 165 162 167 161 159 137 124 137 182 113 137
298 248 275 281 282 267 286 281 85 116 132 130 137 143 151 150 156 162 167 165 172 174 173 165 165 161 159 165 145 151 178 180 178 176 120 154 155 142 137 134 157 160 164
287 241 244 243 252 220 217 204 156 149 153 137 144 157 147 157 146 140 159 167 185 184 173 183 165 160 177 187 178 174 181 182 170 135 138 162 183 194 199 194 204 196 196
314 295 257 258 256 219 216 202 177 174 164 156 154 155 152 151 146 144 132 173 175 191 186 176 158 151 169 179 183 188 197 199 198 147 170 192 205 214 229 238 242 232 229